BWA526 TTPP-SYCJ

Flight info

Callsign BWA526
Flight time 0h 53m
Altitude 33000
Route POS DCT VOKAV DCT LIKEV
Aircraft B38M/M-SDE1FGHILORVWXY/HB1

Departure

Time 2026-04-28 22:31
Airport Piarco International Airport (TTPP)

Arrival

Time 2026-04-28 23:24
Airport Cheddi Jagan International Airport (SYCJ)
Time Latitude Longitude Altitude Speed Heading
2026-04-28 22:03 10.59972 -61.33944 19 ft 0 kts 13°
2026-04-28 22:20 10.59954 -61.33948 19 ft 4 kts 13°
2026-04-28 22:20 10.59927 -61.33954 20 ft 4 kts 13°
2026-04-28 22:20 10.59901 -61.33961 21 ft 4 kts 11°
2026-04-28 22:21 10.59874 -61.33964 19 ft 4 kts 358°
2026-04-28 22:21 10.59849 -61.33959 23 ft 4 kts 329°
2026-04-28 22:21 10.59837 -61.33943 22 ft 2 kts 270°
2026-04-28 22:21 10.59836 -61.33937 23 ft 0 kts 270°
2026-04-28 22:26 10.59836 -61.33942 19 ft 2 kts 270°
2026-04-28 22:26 10.59837 -61.33978 19 ft 9 kts 270°
2026-04-28 22:26 10.59837 -61.34050 19 ft 11 kts 270°
2026-04-28 22:26 10.59833 -61.34137 21 ft 13 kts 255°
2026-04-28 22:27 10.59757 -61.34183 19 ft 14 kts 184°
2026-04-28 22:27 10.59708 -61.34238 19 ft 12 kts 268°
2026-04-28 22:27 10.59707 -61.34331 19 ft 14 kts 270°
2026-04-28 22:27 10.59703 -61.34439 19 ft 16 kts 266°
2026-04-28 22:28 10.59641 -61.34526 19 ft 17 kts 191°
2026-04-28 22:28 10.59514 -61.34528 19 ft 18 kts 180°
2026-04-28 22:28 10.59427 -61.34551 20 ft 12 kts 239°
2026-04-28 22:28 10.59410 -61.34637 20 ft 13 kts 265°
2026-04-28 22:29 10.59390 -61.34736 20 ft 15 kts 253°
2026-04-28 22:29 10.59359 -61.34847 22 ft 17 kts 256°
2026-04-28 22:29 10.59352 -61.34975 20 ft 19 kts 270°
2026-04-28 22:29 10.59351 -61.35117 19 ft 21 kts 270°
2026-04-28 22:30 10.59432 -61.35197 19 ft 14 kts 357°
2026-04-28 22:30 10.59516 -61.35169 19 ft 13 kts 38°
2026-04-28 22:30 10.59535 -61.35070 19 ft 20 kts 89°
2026-04-28 22:30 10.59535 -61.34845 20 ft 57 kts 90°
2026-04-28 22:31 10.59537 -61.34186 20 ft 126 kts 90°
2026-04-28 22:31 10.59531 -61.33129 234 ft 161 kts 91°
2026-04-28 22:31 10.59498 -61.31956 835 ft 174 kts 90°
2026-04-28 22:31 10.59478 -61.30755 1753 ft 166 kts 89°
2026-04-28 22:32 10.59465 -61.29496 2276 ft 190 kts 89°
2026-04-28 22:32 10.59459 -61.28054 2810 ft 217 kts 90°
2026-04-28 22:32 10.59477 -61.26465 3501 ft 235 kts 90°
2026-04-28 22:32 10.59198 -61.24786 4258 ft 252 kts 114°
2026-04-28 22:33 10.58114 -61.23362 5173 ft 259 kts 140°
2026-04-28 22:33 10.56669 -61.22232 6132 ft 266 kts 142°
2026-04-28 22:33 10.55199 -61.21082 7158 ft 266 kts 141°
2026-04-28 22:33 10.53722 -61.19918 8068 ft 273 kts 140°
2026-04-28 22:34 10.52195 -61.18706 8829 ft 284 kts 140°
2026-04-28 22:34 10.50634 -61.17465 9781 ft 287 kts 139°
2026-04-28 22:34 10.49037 -61.16194 10432 ft 299 kts 139°
2026-04-28 22:34 10.47363 -61.14862 10828 ft 319 kts 139°
2026-04-28 22:35 10.45577 -61.13441 11321 ft 333 kts 140°
2026-04-28 22:35 10.43732 -61.11973 12001 ft 338 kts 139°
2026-04-28 22:35 10.41876 -61.10495 12797 ft 341 kts 139°
2026-04-28 22:35 10.40002 -61.09004 13537 ft 345 kts 139°
2026-04-28 22:36 10.38104 -61.07494 14219 ft 348 kts 140°
2026-04-28 22:36 10.36190 -61.05972 14838 ft 352 kts 140°
2026-04-28 22:36 10.34256 -61.04434 15453 ft 355 kts 140°
2026-04-28 22:36 10.32300 -61.02878 16067 ft 358 kts 140°
2026-04-28 22:37 10.30355 -61.01331 16654 ft 362 kts 140°
2026-04-28 22:37 10.28364 -60.99749 17243 ft 365 kts 140°
2026-04-28 22:37 10.26361 -60.98157 17813 ft 368 kts 140°
2026-04-28 22:37 10.24335 -60.96547 18335 ft 371 kts 141°
2026-04-28 22:38 10.22292 -60.94923 18830 ft 374 kts 140°
2026-04-28 22:38 10.20241 -60.93293 19325 ft 376 kts 140°
2026-04-28 22:38 10.18180 -60.91656 19810 ft 378 kts 141°
2026-04-28 22:38 10.16106 -60.90009 20293 ft 380 kts 141°
2026-04-28 22:39 10.14044 -60.88372 20760 ft 382 kts 141°
2026-04-28 22:39 10.11946 -60.86706 21224 ft 384 kts 141°
2026-04-28 22:39 10.09838 -60.85033 21694 ft 387 kts 141°
2026-04-28 22:39 10.07714 -60.83347 22142 ft 389 kts 141°
2026-04-28 22:40 10.05579 -60.81653 22586 ft 391 kts 141°
2026-04-28 22:40 10.03431 -60.79949 23032 ft 393 kts 141°
2026-04-28 22:40 10.01268 -60.78232 23468 ft 395 kts 141°
2026-04-28 22:40 9.99088 -60.76503 23682 ft 403 kts 141°
2026-04-28 22:41 9.96846 -60.74726 23643 ft 416 kts 141°
2026-04-28 22:41 9.94569 -60.72921 23811 ft 421 kts 141°
2026-04-28 22:41 9.92262 -60.71092 24142 ft 422 kts 141°
2026-04-28 22:41 9.89942 -60.69253 24406 ft 425 kts 141°
2026-04-28 22:42 9.87607 -60.67402 24704 ft 427 kts 141°
2026-04-28 22:42 9.85258 -60.65541 24993 ft 429 kts 141°
2026-04-28 22:42 9.82901 -60.63675 25269 ft 431 kts 141°
2026-04-28 22:42 9.80531 -60.61798 25551 ft 433 kts 141°
2026-04-28 22:43 9.78153 -60.59915 25830 ft 435 kts 141°
2026-04-28 22:43 9.75766 -60.58026 26122 ft 437 kts 141°
2026-04-28 22:43 9.73396 -60.56150 26401 ft 438 kts 141°
2026-04-28 22:43 9.70990 -60.54246 26661 ft 441 kts 141°
2026-04-28 22:44 9.68569 -60.52330 26919 ft 443 kts 141°
2026-04-28 22:44 9.66130 -60.50401 27199 ft 445 kts 141°
2026-04-28 22:44 9.63688 -60.48469 27486 ft 446 kts 141°
2026-04-28 22:44 9.61240 -60.46533 27744 ft 448 kts 141°
2026-04-28 22:45 9.58774 -60.44584 28014 ft 450 kts 141°
2026-04-28 22:45 9.56298 -60.42627 28205 ft 453 kts 141°
2026-04-28 22:45 9.53843 -60.40687 28452 ft 455 kts 141°
2026-04-28 22:45 9.51338 -60.38707 28708 ft 457 kts 141°
2026-04-28 22:46 9.48824 -60.36722 28947 ft 459 kts 141°
2026-04-28 22:46 9.46301 -60.34728 29168 ft 461 kts 141°
2026-04-28 22:46 9.43770 -60.32730 29416 ft 463 kts 141°
2026-04-28 22:46 9.41223 -60.30719 29641 ft 465 kts 141°
2026-04-28 22:47 9.38667 -60.28701 29879 ft 467 kts 141°
2026-04-28 22:47 9.36099 -60.26674 30153 ft 467 kts 142°
2026-04-28 22:47 9.33539 -60.24655 30421 ft 467 kts 142°
2026-04-28 22:47 9.30973 -60.22630 30692 ft 467 kts 142°
2026-04-28 22:48 9.28447 -60.20637 30969 ft 467 kts 142°
2026-04-28 22:48 9.25887 -60.18619 31289 ft 465 kts 142°
2026-04-28 22:48 9.23333 -60.16605 31514 ft 467 kts 142°
2026-04-28 22:48 9.20763 -60.14579 31750 ft 469 kts 142°
2026-04-28 22:49 9.18187 -60.12548 32023 ft 469 kts 142°
2026-04-28 22:49 9.15615 -60.10522 32302 ft 469 kts 142°
2026-04-28 22:49 9.13038 -60.08491 32538 ft 470 kts 142°
2026-04-28 22:49 9.10452 -60.06453 32769 ft 472 kts 142°
2026-04-28 22:50 9.07852 -60.04406 32933 ft 474 kts 142°
2026-04-28 22:50 9.02690 -60.00341 32933 ft 472 kts 142°
2026-04-28 22:51 8.97508 -59.96263 32937 ft 472 kts 142°
2026-04-28 22:51 8.92320 -59.92189 32936 ft 472 kts 144°
2026-04-28 22:52 8.86734 -59.88798 32938 ft 472 kts 150°
2026-04-28 22:52 8.81039 -59.85469 32937 ft 475 kts 150°
2026-04-28 22:53 8.75315 -59.82133 32937 ft 475 kts 150°
2026-04-28 22:53 8.69589 -59.78796 32937 ft 475 kts 150°
2026-04-28 22:54 8.63872 -59.75467 32935 ft 474 kts 151°
2026-04-28 22:54 8.58181 -59.72153 32934 ft 475 kts 150°
2026-04-28 22:55 8.52454 -59.68819 32939 ft 476 kts 151°
2026-04-28 22:55 8.46725 -59.65487 32935 ft 475 kts 150°
2026-04-28 22:56 8.41007 -59.62160 32933 ft 475 kts 150°
2026-04-28 22:56 8.35323 -59.58856 32934 ft 474 kts 150°
2026-04-28 22:57 8.29611 -59.55536 32938 ft 474 kts 150°
2026-04-28 22:57 8.23889 -59.52210 32938 ft 474 kts 150°
2026-04-28 22:58 8.18166 -59.48887 32935 ft 475 kts 150°
2026-04-28 22:58 8.12438 -59.45560 32938 ft 475 kts 150°
2026-04-28 22:59 8.06762 -59.42266 32937 ft 474 kts 150°
2026-04-28 22:59 8.01076 -59.38966 32720 ft 463 kts 150°
2026-04-28 22:59 7.98301 -59.37355 32164 ft 460 kts 150°
2026-04-28 23:00 7.95525 -59.35744 31459 ft 460 kts 149°
2026-04-28 23:00 7.92758 -59.34141 30859 ft 458 kts 149°
2026-04-28 23:00 7.90006 -59.32546 30328 ft 454 kts 149°
2026-04-28 23:00 7.87277 -59.30963 29777 ft 451 kts 149°
2026-04-28 23:01 7.84601 -59.29412 29150 ft 448 kts 149°
2026-04-28 23:01 7.81919 -59.27857 28601 ft 443 kts 149°
2026-04-28 23:01 7.79253 -59.26312 28083 ft 439 kts 148°
2026-04-28 23:01 7.76621 -59.24787 27567 ft 435 kts 148°
2026-04-28 23:02 7.74013 -59.23277 27054 ft 431 kts 148°
2026-04-28 23:02 7.71424 -59.21777 26544 ft 427 kts 148°
2026-04-28 23:02 7.68858 -59.20291 26036 ft 424 kts 148°
2026-04-28 23:02 7.66303 -59.18811 25533 ft 421 kts 148°
2026-04-28 23:03 7.63771 -59.17345 25031 ft 418 kts 148°
2026-04-28 23:03 7.61257 -59.15890 24546 ft 416 kts 148°
2026-04-28 23:03 7.58790 -59.14462 24078 ft 413 kts 148°
2026-04-28 23:03 7.56307 -59.13024 23611 ft 410 kts 148°
2026-04-28 23:04 7.53835 -59.11594 23061 ft 408 kts 148°
2026-04-28 23:04 7.48954 -59.08770 22113 ft 400 kts 148°
2026-04-28 23:04 7.46551 -59.07381 21668 ft 396 kts 148°
2026-04-28 23:05 7.44171 -59.06004 21221 ft 393 kts 148°
2026-04-28 23:05 7.41809 -59.04638 20795 ft 389 kts 148°
2026-04-28 23:05 7.39501 -59.03304 20389 ft 386 kts 148°
2026-04-28 23:05 7.37179 -59.01961 19971 ft 384 kts 148°
2026-04-28 23:06 7.34869 -59.00625 19558 ft 381 kts 148°
2026-04-28 23:06 7.32595 -58.99311 19161 ft 379 kts 148°
2026-04-28 23:06 7.30312 -58.97991 18764 ft 377 kts 148°
2026-04-28 23:06 7.28041 -58.96679 18343 ft 375 kts 148°
2026-04-28 23:07 7.25783 -58.95374 17915 ft 374 kts 148°
2026-04-28 23:07 7.23533 -58.94074 17497 ft 371 kts 148°
2026-04-28 23:07 7.21326 -58.92799 17099 ft 368 kts 148°
2026-04-28 23:07 7.19117 -58.91523 16720 ft 366 kts 148°
2026-04-28 23:08 7.16920 -58.90254 16322 ft 363 kts 148°
2026-04-28 23:08 7.14733 -58.88991 15926 ft 360 kts 148°
2026-04-28 23:08 7.12570 -58.87742 15551 ft 358 kts 148°
2026-04-28 23:08 7.10418 -58.86500 15168 ft 356 kts 148°
2026-04-28 23:09 7.08277 -58.85263 14794 ft 353 kts 148°
2026-04-28 23:09 7.06150 -58.84036 14419 ft 352 kts 148°
2026-04-28 23:09 7.04062 -58.82830 14057 ft 350 kts 148°
2026-04-28 23:09 7.01957 -58.81616 13670 ft 348 kts 148°
2026-04-28 23:10 6.99861 -58.80406 13247 ft 347 kts 148°
2026-04-28 23:10 6.97771 -58.79201 12853 ft 344 kts 148°
2026-04-28 23:10 6.95706 -58.78009 12480 ft 342 kts 148°
2026-04-28 23:10 6.93650 -58.76823 12118 ft 339 kts 148°
2026-04-28 23:11 6.91616 -58.75650 11753 ft 336 kts 148°
2026-04-28 23:11 6.89604 -58.74489 11381 ft 329 kts 148°
2026-04-28 23:11 6.87640 -58.73356 11041 ft 323 kts 148°
2026-04-28 23:11 6.85737 -58.72259 10720 ft 317 kts 148°
2026-04-28 23:12 6.83857 -58.71174 10546 ft 305 kts 148°
2026-04-28 23:12 6.82042 -58.70128 10410 ft 296 kts 148°
2026-04-28 23:12 6.80263 -58.69102 10266 ft 294 kts 148°
2026-04-28 23:12 6.78492 -58.68081 9971 ft 295 kts 148°
2026-04-28 23:13 6.76730 -58.67036 9736 ft 292 kts 147°
2026-04-28 23:13 6.75002 -58.65973 9477 ft 290 kts 147°
2026-04-28 23:13 6.73283 -58.64918 9223 ft 289 kts 147°
2026-04-28 23:13 6.71591 -58.63883 8987 ft 287 kts 147°
2026-04-28 23:14 6.69892 -58.62844 8743 ft 286 kts 147°
2026-04-28 23:14 6.68192 -58.61804 8500 ft 285 kts 147°
2026-04-28 23:14 6.66504 -58.60773 8264 ft 284 kts 147°
2026-04-28 23:14 6.64821 -58.59744 8031 ft 283 kts 147°
2026-04-28 23:15 6.63143 -58.58719 7789 ft 282 kts 147°
2026-04-28 23:15 6.61472 -58.57698 7554 ft 281 kts 147°
2026-04-28 23:15 6.59829 -58.56694 7320 ft 280 kts 147°
2026-04-28 23:15 6.58171 -58.55681 7093 ft 278 kts 147°
2026-04-28 23:16 6.56522 -58.54674 6863 ft 276 kts 147°
2026-04-28 23:16 6.54894 -58.53680 6636 ft 272 kts 147°
2026-04-28 23:16 6.53286 -58.52697 6407 ft 269 kts 146°
2026-04-28 23:16 6.51698 -58.51728 6176 ft 265 kts 147°
2026-04-28 23:17 6.50129 -58.50770 5930 ft 262 kts 146°
2026-04-28 23:17 6.48588 -58.49828 5730 ft 257 kts 146°
2026-04-28 23:17 6.47076 -58.48905 5504 ft 251 kts 146°
2026-04-28 23:17 6.45599 -58.48003 5261 ft 246 kts 146°
2026-04-28 23:18 6.44174 -58.47133 5026 ft 241 kts 146°
2026-04-28 23:18 6.42797 -58.46209 4780 ft 235 kts 136°
2026-04-28 23:18 6.41648 -58.45076 4545 ft 229 kts 132°
2026-04-28 23:18 6.40536 -58.43952 4323 ft 224 kts 132°
2026-04-28 23:19 6.39448 -58.42857 4129 ft 218 kts 132°
2026-04-28 23:19 6.38390 -58.41795 3938 ft 211 kts 132°
2026-04-28 23:19 6.37425 -58.40733 3742 ft 200 kts 118°
2026-04-28 23:19 6.37075 -58.39448 3494 ft 188 kts 86°
2026-04-28 23:20 6.37428 -58.38245 3237 ft 180 kts 64°
2026-04-28 23:20 6.38087 -58.37183 2987 ft 180 kts 53°
2026-04-28 23:20 6.38913 -58.36242 2739 ft 179 kts 47°
2026-04-28 23:20 6.39787 -58.35355 2491 ft 178 kts 46°
2026-04-28 23:21 6.40667 -58.34486 2263 ft 177 kts 45°
2026-04-28 23:21 6.41519 -58.33646 2046 ft 162 kts 46°
2026-04-28 23:21 6.42301 -58.32874 1825 ft 155 kts 45°
2026-04-28 23:21 6.43049 -58.32137 1645 ft 142 kts 45°
2026-04-28 23:22 6.43725 -58.31467 1475 ft 136 kts 45°
2026-04-28 23:22 6.44404 -58.30799 1281 ft 134 kts 45°
2026-04-28 23:22 6.45062 -58.30147 1100 ft 135 kts 45°
2026-04-28 23:22 6.45732 -58.29487 942 ft 135 kts 45°
2026-04-28 23:23 6.46406 -58.28822 782 ft 137 kts 43°
2026-04-28 23:23 6.47089 -58.28150 612 ft 139 kts 44°
2026-04-28 23:23 6.47761 -58.27470 458 ft 135 kts 44°
2026-04-28 23:23 6.48425 -58.26831 249 ft 130 kts 44°
2026-04-28 23:24 6.49060 -58.26198 111 ft 121 kts 45°
2026-04-28 23:24 6.49542 -58.25723 108 ft 69 kts 45°
2026-04-28 23:24 6.49862 -58.25407 108 ft 63 kts 44°
2026-04-28 23:24 6.50120 -58.25157 104 ft 35 kts 43°
2026-04-28 23:25 6.50236 -58.25054 104 ft 9 kts 24°
2026-04-28 23:25 6.50287 -58.25064 104 ft 8 kts 322°
2026-04-28 23:25 6.50320 -58.25096 103 ft 5 kts 313°
2026-04-28 23:25 6.50347 -58.25131 100 ft 7 kts 284°
2026-04-28 23:26 6.50325 -58.25175 100 ft 5 kts 227°
2026-04-28 23:26 6.50300 -58.25204 101 ft 1 kts 252°
2026-04-28 23:26 6.50303 -58.25218 100 ft 3 kts 292°
2026-04-28 23:26 6.50316 -58.25234 100 ft 3 kts 315°
2026-04-28 23:27 6.50324 -58.25242 100 ft 0 kts 314°